Simultaneous Nadir Overpasses (SNOs) Predictions

Prediction of SNOs between METOP-A and NOAA-19 Satellite Orbit:

Table of predicted SNOs for the next 14.0 days since TLE Epoch: 4/26/2019
Index Date (METOP-A) Time (METOP-A) Lat,Lon (METOP-A) SZA (METOP-A ) Date (NOAA-19) Time (NOAA-19) Lat,Lon (NOAA-19) SZA (NOAA-19 ) Distance(km) Time Diff (sec)
1 05/03/2019 08:09:30 -79.57,-110.83 115.86 05/03/2019 08:08:23 -79.58,-110.67 115.85 3.41 67
2 05/03/2019 09:00:10 79.57, 56.44 64.13 05/03/2019 08:59:29 79.60, 56.44 64.15 3.29 41
3 05/03/2019 09:50:51 -79.59,-136.07 115.86 05/03/2019 09:50:24 -79.59,-136.20 115.87 2.64 27
4 05/03/2019 10:41:31 79.58, 31.20 64.12 05/03/2019 10:41:29 79.57, 31.19 64.11 0.84 2
5 05/03/2019 11:32:13 -79.57,-161.58 115.91 05/03/2019 11:32:24 -79.56,-161.45 115.91 2.73 11
6 05/03/2019 12:22:53 79.56, 5.69 64.07 05/03/2019 12:23:30 79.58, 5.65 64.10 2.11 37
7 05/03/2019 13:13:35 -79.54, 172.90 115.96 05/03/2019 13:14:25 -79.57, 173.02 115.92 3.37 50




NCC Satellite Simultaneous Nadir Overpasses (SNOs) Prediction Service
